Liste des activités triées par date Imprimer cette liste


14.10.2019  2600HOCKEY SUR GAZON8-15 ansSport
14.10.2019  1180BADMINTON8-15 ansSport
14.10.2019  3600FOOTBALL8-15 ansSport
14.10.2019  2380Danse MODERNE - CONTEMPORAINE8-15 ansSport
14.10.2019  6050YOGA I8-11 ansSport
14.10.2019  6051YOGA II11-15 ansSport
14.10.2019  1160Elevage de CHEVRES8-12 ansAvec les animaux
14.10.2019  2190Balade à dos d'ANE8-15 ansAvec les animaux
14.10.2019  3230Sur les traces de la POLICE SCIENTIFIQUE9-12 ansMétier
14.10.2019  2970PREMIERS SECOURS chez les Samaritains8-15 ansDécouverte
14.10.2019  2960LASER GAME8-15 ansDécouverte
14.10.2019  1420AVION VOLE !8-15 ansDécouverte
14.10.2019  1060Tout FEU, tout FLAMME9-15 ansDécouverte
14.10.2019  4061PLONGEE II8-15 ansSport
14.10.2019  4062PLONGEE III8-15 ansSport
14.10.2019  1240SAUVETAGE de Rolle8-15 ansMétier
14.10.2019  3370Entretien du VELO8-15 ansActivité manuelle
14.10.2019  4060PLONGEE I8-15 ansSport
14.10.2019  1860ESCRIME8-15 ansSport
14.10.2019  2880CHEERLEADERS8-15 ansSport
14.10.2019  4063PLONGEE IV8-15 ansSport
14.10.2019  1410BASKET-BALL10-15 ansSport
14.10.2019  1480Que le meilleur GAGNE !8-15 ansDécouverte
14.10.2019  1190Les doigts dans le POT8-10 ansGastronomie
14.10.2019  1191Les doigts dans le POT8-10 ansGastronomie
14.10.2019  3670PECHE professionnelle11-15 ansMétier
15.10.2019  1040Construis ta maquette GEOTHERMIQUE9-13 ansActivité manuelle
15.10.2019  3200TENNIS DE TABLE8-15 ansSport
15.10.2019  3510MOTOCROSS I8-15 ansSport
15.10.2019  3511MOTOCROSS II8-15 ansSport
15.10.2019  1290BUBBLE SOCCER8-15 ansSport
15.10.2019  3400Le monde du CHEVAL8-15 ansAvec les animaux
15.10.2019  1510Chez le BOULANGER8-12 ansMétier
15.10.2019  1950Tours de MAGIE8-15 ansDécouverte
15.10.2019  1880SCOUTISME8-15 ansDécouverte
15.10.2019  6010Avé César ! Voyage dans l'ANTIQUITE8-15 ansDécouverte
15.10.2019  3610ESCAPE GAME8-15 ansDécouverte
15.10.2019  6070BOOMERANG, construire, lancer, attraper8-15 ansActivité manuelle
15.10.2019  1430SKATEPARK8-15 ansSport
15.10.2019  2930CROSSFIT I8-12 ansSport
15.10.2019  3020Parc ANIMALIER Challandes8-15 ansAvec les animaux
15.10.2019  1120BRICOLAGE8-15 ansActivité manuelle
15.10.2019  1581Après-midi LUDIQUE8-15 ansDécouverte
15.10.2019  3660ECHECS : initiation et stratégie8-12 ansDécouverte
16.10.2019  1570Cours Croix-Rouge de BABY-SITTING14-15 ansMétier
16.10.2019  1840PEINTURE8-15 ansActivité manuelle
16.10.2019  3360ACCROBRANCHE8-15 ansSport
16.10.2019  1070Semaine OLYMPIQUE9-15 ansSport
16.10.2019  1520TENNIS I8-15 ansSport
16.10.2019  6020Le monde du CIRQUE8-15 ansSport
16.10.2019  2940NATATION8-15 ansSport
16.10.2019  2810Chez le VETERINAIRE à Gland12-15 ansMétier
16.10.2019  2180Chez le CONFISEUR8-15 ansMétier
16.10.2019  3580Vol en HELICOPTERE8-15 ansDécouverte
16.10.2019  3220Expédition sous TERRE10-15 ansDécouverte
16.10.2019  1580JEUX de société8-15 ansDécouverte
16.10.2019  1810Programme un JEU VIDEO8-12 ansDécouverte
16.10.2019  3120SALINES DE BEX8-15 ansDécouverte
16.10.2019  2920PODCAST & GRAPHISME8-15 ansDécouverte
16.10.2019  2630CINEMA & REPORTER8-15 ansDécouverte
16.10.2019  1850CHEVAL et NATURE8-12 ansAvec les animaux
16.10.2019  2890PIZZAIOLO10-15 ansGastronomie
16.10.2019  1750LASERED I10-12 ansDécouverte
16.10.2019  3520VOLER comme Peter Pan8-15 ansDécouverte
16.10.2019  2210Petits SNACKS salés I8-15 ansGastronomie
16.10.2019  2211Petits SNACKS salés II8-15 ansGastronomie
17.10.2019  3401Le monde des CHUCHOTEURS8-15 ansAvec les animaux
17.10.2019  2680PETANQUE8-15 ansSport
17.10.2019  3590JUMPARK8-15 ansSport
17.10.2019  1310MODELISME : les trains8-15 ansActivité manuelle
17.10.2019  3131BISCUITS en folie8-15 ansGastronomie
17.10.2019  2440MUR DE GRIMPE en salle I8-10 ansSport
17.10.2019  2441MUR DE GRIMPE en salle II10-15 ansSport
17.10.2019  3391TIR A L'ARC II10-15 ansSport
17.10.2019  3390TIR A L'ARC I10-15 ansSport
17.10.2019  3250JUDO8-15 ansSport
17.10.2019  3260TERRES-NEUVES10-15 ansAvec les animaux
17.10.2019  2430Balade avec des LAMAS8-15 ansAvec les animaux
17.10.2019  2710AMBULANCES et premiers secours8-12 ansMétier
17.10.2019  6080LABYRINTHE AVENTURE8-15 ansDécouverte
17.10.2019  2931CROSSFIT II12-15 ansSport
17.10.2019  2743Quels TRESORS enfouis sous nos pieds?9-12 ansDécouverte
17.10.2019  1751LASERED II11-15 ansDécouverte
17.10.2019  3380NETBALL8-14 ansSport
17.10.2019  1280PEINTURE sur toile8-15 ansActivité manuelle
17.10.2019  1690JARDINIERS en herbe8-15 ansActivité manuelle
17.10.2019  2920PODCAST & GRAPHISME8-15 ansDécouverte
17.10.2019  1570Cours Croix-Rouge de BABY-SITTING14-15 ansMétier
18.10.2019  3550WARHAMMER8-15 ansDécouverte
18.10.2019  1330REGA - Garde aérienne suisse de sauvetage10-15 ansMétier
18.10.2019  1471PATISSERIES8-15 ansGastronomie
18.10.2019  3611ESCAPE GAME et jeux de société8-15 ansDécouverte
18.10.2019  2070Vélo BMX8-15 ansSport
18.10.2019  4050ROLLERS8-15 ansSport
18.10.2019  3480Tir au PISTOLET à air comprimé11-15 ansSport
18.10.2019  1521TENNIS II8-15 ansSport
18.10.2019  1940ZOO de Servion et TROPIQUARIUM8-12 ansAvec les animaux
18.10.2019  1020Refuge pour ANIMAUX SVPA8-15 ansAvec les animaux
18.10.2019  1640Chez les POMPIERS8-11 ansMétier
18.10.2019  3310KARTING10-15 ansSport
18.10.2019  2090Deviens ami(e) avec les CHIENS8-15 ansAvec les animaux
18.10.2019  4031Sur les traces du CASTOR8-12 ansDécouverte
18.10.2019  2790A ton poste (de GYM) !8-15 ansSport
18.10.2019  2220DANSE et THEATRE8-15 ansSport
18.10.2019  1530FOOT Events I8-15 ansSport